When you browse on this site, cookies collect data to enhance your experience and personalize the content and advertising you see.
Visit our Privacy Policy to learn more. By continuing to use the site, you agree to this use of cookies and data.

Hourly Weather Sharan

Today, 5 July, Sunday

Time Temperature Precipitation Wind Pressure Humidity
00:00 +22°C° 0 mm 3 mps 584 mmHg 39%
01:00 +22°C° 0 mm 3 mps 584 mmHg 36%
02:00 +21°C° 0 mm 3 mps 584 mmHg 33%
03:00 +21°C° 0 mm 2 mps 584 mmHg 34%
04:00 +20°C° 0 mm 2 mps 584 mmHg 35%
05:00 +20°C° 0 mm 2 mps 584 mmHg 37%
06:00 +20°C° 0 mm 3 mps 584 mmHg 37%
07:00 +21°C° 0 mm 3 mps 585 mmHg 38%
08:00 +22°C° 0 mm 3 mps 585 mmHg 39%
09:00 +25°C° 0 mm 3 mps 586 mmHg 37%
10:00 +26°C° 0 mm 3 mps 586 mmHg 35%
11:00 +27°C° 0 mm 3 mps 587 mmHg 33%
12:00 +28°C° 0 mm 4 mps 587 mmHg 30%
13:00 +28°C° 0 mm 5 mps 586 mmHg 28%
14:00 +29°C° 0 mm 6 mps 586 mmHg 26%
15:00 +28°C° 0.2 mm 6 mps 586 mmHg 29%
16:00 +28°C° 0.2 mm 6 mps 585 mmHg 32%
17:00 +27°C° 0.2 mm 6 mps 584 mmHg 36%
18:00 +26°C° 0.1 mm 5 mps 584 mmHg 38%
19:00 +25°C° 0.1 mm 4 mps 585 mmHg 40%
20:00 +25°C° 0.1 mm 4 mps 585 mmHg 42%
21:00 +24°C° 0.9 mm 3 mps 585 mmHg 43%
22:00 +23°C° 0.9 mm 2 mps 585 mmHg 45%
23:00 +21°C° 0.9 mm 2 mps 585 mmHg 46%

Tomorrow, 6 July, Monday

Time Temperature Precipitation Wind Pressure Humidity
00:00 +22°C° 0.1 mm 1 mps 584 mmHg 47%
01:00 +22°C° 0.1 mm 1 mps 584 mmHg 47%
02:00 +21°C° 0.1 mm 1 mps 584 mmHg 48%
03:00 +21°C° 0 mm 1 mps 584 mmHg 49%
04:00 +20°C° 0 mm 1 mps 583 mmHg 50%
05:00 +20°C° 0 mm 1 mps 583 mmHg 51%
06:00 +21°C° 0 mm 1 mps 584 mmHg 49%
07:00 +22°C° 0 mm 1 mps 584 mmHg 46%
08:00 +23°C° 0 mm 1 mps 585 mmHg 43%
09:00 +24°C° 0 mm 1 mps 586 mmHg 38%
10:00 +26°C° 0 mm 1 mps 586 mmHg 32%
11:00 +27°C° 0 mm 2 mps 587 mmHg 27%
12:00 +28°C° 0 mm 2 mps 587 mmHg 24%
13:00 +29°C° 0 mm 2 mps 587 mmHg 20%
14:00 +30°C° 0 mm 2 mps 587 mmHg 17%
15:00 +30°C° 0 mm 3 mps 587 mmHg 18%
16:00 +30°C° 0 mm 4 mps 587 mmHg 20%
17:00 +30°C° 0 mm 5 mps 587 mmHg 21%
18:00 +28°C° 0.5 mm 5 mps 586 mmHg 32%
19:00 +25°C° 0.5 mm 5 mps 585 mmHg 43%
20:00 +21°C° 0.5 mm 5 mps 584 mmHg 53%
21:00 +21°C° 1.2 mm 4 mps 585 mmHg 52%
22:00 +22°C° 1.2 mm 3 mps 585 mmHg 51%
23:00 +23°C° 1.2 mm 2 mps 586 mmHg 49%

Day after tomorrow, 7 July, Tuesday

Time Temperature Precipitation Wind Pressure Humidity
00:00 +21°C° 0.6 mm 2 mps 586 mmHg 50%
01:00 +21°C° 0.6 mm 2 mps 586 mmHg 51%
02:00 +21°C° 0.6 mm 2 mps 586 mmHg 52%
03:00 +22°C° 0 mm 1 mps 586 mmHg 53%
04:00 +21°C° 0 mm 1 mps 585 mmHg 54%
05:00 +21°C° 0 mm 1 mps 585 mmHg 54%
06:00 +22°C° 0 mm 1 mps 586 mmHg 50%
07:00 +23°C° 0 mm 1 mps 586 mmHg 46%
08:00 +23°C° 0 mm 1 mps 587 mmHg 42%
09:00 +25°C° 0 mm 1 mps 587 mmHg 38%
10:00 +26°C° 0 mm 1 mps 588 mmHg 34%
11:00 +27°C° 0 mm 1 mps 588 mmHg 30%
12:00 +28°C° 0 mm 1 mps 588 mmHg 27%
13:00 +29°C° 0 mm 2 mps 589 mmHg 24%
14:00 +30°C° 0 mm 2 mps 589 mmHg 21%
15:00 +31°C° 0 mm 3 mps 589 mmHg 20%
16:00 +31°C° 0 mm 3 mps 589 mmHg 20%
17:00 +31°C° 0 mm 3 mps 589 mmHg 19%
18:00 +30°C° 0 mm 5 mps 588 mmHg 25%
19:00 +29°C° 0 mm 7 mps 588 mmHg 30%
20:00 +27°C° 0 mm 9 mps 588 mmHg 36%
21:00 +26°C° 0.1 mm 7 mps 588 mmHg 38%
22:00 +26°C° 0.1 mm 5 mps 588 mmHg 40%
23:00 +25°C° 0.1 mm 3 mps 588 mmHg 43%

8 July, Wednesday

Time Temperature Precipitation Wind Pressure Humidity
00:00 +24°C° 0.1 mm 3 mps 588 mmHg 45%
01:00 +24°C° 0.1 mm 2 mps 587 mmHg 47%
02:00 +23°C° 0.1 mm 2 mps 587 mmHg 49%
03:00 +23°C° 0 mm 2 mps 587 mmHg 50%
04:00 +21°C° 0 mm 2 mps 587 mmHg 52%
05:00 +22°C° 0 mm 1 mps 586 mmHg 54%
06:00 +23°C° 0 mm 1 mps 587 mmHg 50%
07:00 +24°C° 0 mm 1 mps 587 mmHg 47%
08:00 +25°C° 0 mm 1 mps 588 mmHg 43%
09:00 +26°C° 0 mm 2 mps 588 mmHg 37%
10:00 +28°C° 0 mm 2 mps 589 mmHg 32%
11:00 +29°C° 0 mm 2 mps 589 mmHg 26%
12:00 +30°C° 0 mm 3 mps 589 mmHg 24%
13:00 +31°C° 0 mm 3 mps 589 mmHg 21%
14:00 +33°C° 0 mm 4 mps 589 mmHg 18%
15:00 +33°C° 0 mm 4 mps 589 mmHg 18%
16:00 +33°C° 0 mm 4 mps 589 mmHg 18%
17:00 +33°C° 0 mm 5 mps 588 mmHg 18%
18:00 +32°C° 0 mm 6 mps 588 mmHg 23%
19:00 +30°C° 0 mm 6 mps 588 mmHg 27%
20:00 +28°C° 0 mm 7 mps 587 mmHg 32%
21:00 +28°C° 0 mm 6 mps 587 mmHg 34%
22:00 +27°C° 0 mm 5 mps 587 mmHg 36%
23:00 +26°C° 0 mm 4 mps 587 mmHg 39%

9 July, Thursday

Time Temperature Precipitation Wind Pressure Humidity
00:00 +26°C° 0 mm 3 mps 587 mmHg 42%
01:00 +25°C° 0 mm 2 mps 586 mmHg 44%
02:00 +24°C° 0 mm 1 mps 586 mmHg 47%
03:00 +24°C° 0 mm 1 mps 585 mmHg 49%
04:00 +23°C° 0 mm 1 mps 585 mmHg 50%
05:00 +20°C° 0 mm 0 mps 584 mmHg 52%
06:00 +21°C° 0 mm 0 mps 585 mmHg 45%
07:00 +24°C° 0 mm 1 mps 586 mmHg 38%
08:00 +26°C° 0 mm 1 mps 586 mmHg 32%
09:00 +27°C° 0 mm 1 mps 587 mmHg 26%
10:00 +28°C° 0 mm 2 mps 587 mmHg 20%
11:00 +30°C° 0 mm 3 mps 587 mmHg 15%
12:00 +32°C° 0 mm 4 mps 587 mmHg 13%
13:00 +33°C° 0 mm 5 mps 587 mmHg 12%
14:00 +34°C° 0 mm 6 mps 587 mmHg 10%
15:00 +34°C° 0 mm 6 mps 587 mmHg 9%
16:00 +34°C° 0 mm 6 mps 586 mmHg 8%
17:00 +34°C° 0 mm 7 mps 586 mmHg 8%
18:00 +33°C° 0 mm 7 mps 586 mmHg 8%
19:00 +32°C° 0 mm 7 mps 586 mmHg 9%
20:00 +29°C° 0 mm 8 mps 585 mmHg 10%
21:00 +28°C° 0 mm 6 mps 585 mmHg 12%
22:00 +27°C° 0 mm 4 mps 585 mmHg 14%
23:00 +26°C° 0 mm 3 mps 585 mmHg 17%

10 July, Friday

Time Temperature Precipitation Wind Pressure Humidity
00:00 +25°C° 0 mm 3 mps 584 mmHg 19%
01:00 +24°C° 0 mm 2 mps 584 mmHg 21%
02:00 +24°C° 0 mm 2 mps 583 mmHg 23%
03:00 +23°C° 0 mm 2 mps 583 mmHg 25%
04:00 +22°C° 0 mm 1 mps 583 mmHg 27%
05:00 +21°C° 0 mm 1 mps 582 mmHg 30%
06:00 +22°C° 0 mm 1 mps 583 mmHg 28%
07:00 +23°C° 0 mm 1 mps 583 mmHg 26%
08:00 +24°C° 0 mm 1 mps 584 mmHg 24%
09:00 +26°C° 0 mm 1 mps 584 mmHg 22%
10:00 +27°C° 0 mm 2 mps 584 mmHg 20%
11:00 +29°C° 0 mm 2 mps 585 mmHg 18%
12:00 +30°C° 0 mm 2 mps 585 mmHg 16%
13:00 +31°C° 0 mm 2 mps 585 mmHg 14%
14:00 +32°C° 0 mm 2 mps 585 mmHg 12%
15:00 +32°C° 0 mm 1 mps 584 mmHg 11%
16:00 +32°C° 0 mm 1 mps 584 mmHg 11%
17:00 +32°C° 0 mm 1 mps 584 mmHg 11%
18:00 +32°C° 0 mm 2 mps 584 mmHg 12%
19:00 +31°C° 0 mm 2 mps 584 mmHg 13%
20:00 +31°C° 0 mm 2 mps 584 mmHg 14%
21:00 +29°C° 0 mm 2 mps 584 mmHg 18%
22:00 +28°C° 0 mm 2 mps 584 mmHg 22%
23:00 +27°C° 0 mm 2 mps 584 mmHg 26%
Show more